Temperature
23 23 23 24 27 28 29 31 33 32 32 32 31 30 29 28 26 24 25 24 23 23 22 22 21 21 21 21 21 21 21 21 20 20 20 20 20 20 20 20 20 19 19 19 19 19 19 19 19
23 23 24 26 28 28 30 32 33 32 32 31 30 30 29 27 26 25 24 23 22 23 22 22 21 21 21 21 20 20 20 20 20 20 20 20 20 20 20 19 19 19 19 19 19 19 19 19 19
23 23 25 28 28 29 31 32 32 32 31 31 30 29 28 26 25 25 23 22 22 22 22 22 21 21 21 20 20 20 20 20 20 20 20 20 20 19 19 19 19 19 19 19 19 19 19 19 19
22 24 26 28 29 31 32 32 33 32 31 31 30 28 26 26 25 24 23 22 21 21 22 22 21 21 21 20 20 20 20 20 20 20 19 19 19 19 19 19 19 19 19 19 18 18 18 19 19
23 26 27 28 30 32 33 33 32 32 31 30 29 26 24 24 24 23 22 22 21 21 21 21 21 21 20 20 20 20 20 19 19 19 19 19 19 19 19 19 19 19 19 18 18 18 18 18 18
25 27 27 28 30 32 33 32 32 32 31 30 28 26 23 23 23 23 23 22 21 21 21 21 21 21 20 20 20 19 19 19 19 19 19 19 19 19 19 19 19 19 18 18 18 18 18 18 18
26 28 28 29 31 32 32 32 31 31 31 29 28 25 22 22 23 23 23 22 21 21 21 21 21 20 20 20 20 19 19 19 19 19 19 19 19 19 19 18 18 18 18 18 18 18 18 18 18
26 28 28 30 31 31 32 31 31 30 29 28 27 24 22 22 23 23 23 22 21 21 20 20 20 20 20 20 19 19 19 19 19 19 19 19 19 18 18 18 18 18 18 18 18 18 18 18 18
26 27 28 30 31 31 31 31 29 28 27 26 25 23 22 22 22 23 23 22 21 21 20 20 19 19 19 19 19 19 19 19 19 19 19 18 18 18 18 18 18 18 18 18 18 18 18 18 18
27 27 29 31 32 31 31 30 29 28 27 25 23 22 22 22 22 22 22 22 21 20 20 19 19 19 19 18 19 19 18 18 18 18 18 18 18 18 17 17 18 18 18 18 18 18 18 18 18
28 28 30 31 31 30 30 29 28 27 25 23 23 22 22 22 22 22 21 21 20 20 20 19 19 19 19 19 18 18 18 18 18 18 18 18 17 17 17 17 17 17 17 17 17 18 18 17 17
29 29 30 30 29 28 28 27 26 25 23 23 22 22 22 21 21 21 20 20 20 19 19 19 19 19 19 18 18 18 18 18 18 18 18 17 17 17 17 17 17 17 17 17 17 17 17 17 17
29 29 29 29 28 28 27 26 25 24 23 23 22 21 21 20 20 19 19 19 19 19 19 18 19 19 19 18 18 18 18 18 17 18 17 17 17 17 17 17 17 17 17 17 17 17 17 17 17
29 29 29 28 28 28 27 26 25 24 23 22 21 21 20 19 19 19 19 18 18 18 18 18 18 18 18 18 18 17 17 17 17 17 17 17 17 17 17 17 17 17 17 16 17 17 16 16 17
29 29 28 29 28 28 28 27 26 24 23 22 21 21 20 19 18 18 17 17 17 18 18 18 18 18 18 17 17 17 17 17 17 17 17 17 17 16 16 16 16 17 16 16 16 16 16 16 16
29 28 27 28 29 29 28 26 25 24 24 23 22 20 19 18 18 17 17 17 17 17 17 17 17 17 17 17 17 17 17 16 16 16 16 16 16 16 16 16 16 16 16 16 16 16 16 16 16
27 27 27 28 29 29 28 26 25 25 24 23 22 21 19 18 18 17 17 17 16 16 16 17 17 17 17 17 16 16 16 16 16 16 16 16 16 16 16 16 15 15 16 16 15 15 15 15 15
27 28 27 27 28 29 27 25 25 25 24 23 22 21 19 18 17 16 16 16 16 16 16 16 16 16 16 16 16 16 16 15 15 15 15 15 15 15 15 15 15 15 15 15 15 15 15 15 15
28 28 27 28 28 28 27 26 25 25 24 23 22 21 20 18 17 16 15 15 15 15 15 15 16 16 16 16 15 15 15 15 15 15 15 15 15 15 15 15 15 15 15 15 15 15 15 15 14
28 28 28 28 28 28 27 26 26 25 24 23 22 21 20 18 17 16 15 14 14 14 14 14 15 15 15 15 15 15 15 14 14 14 14 14 14 14 14 14 14 14 14 14 14 14 14 14 14
27 27 27 27 27 28 26 26 25 25 24 23 22 21 20 18 17 15 15 14 13 13 13 14 14 14 14 14 14 14 14 14 14 14 14 14 14 14 14 14 14 14 14 14 14 14 14 14 14
26 28 27 27 26 26 26 24 24 24 24 23 22 20 19 18 16 15 14 14 13 13 13 13 13 14 14 14 14 14 13 13 13 13 13 13 13 13 13 13 13 13 13 13 13 13 13 13 13
27 28 28 27 26 26 25 24 23 23 22 22 21 20 19 17 16 15 14 13 13 12 12 12 13 13 13 13 13 13 13 12 12 12 12 12 12 12 12 12 12 12 12 13 13 13 13 13 13
28 28 27 27 26 24 24 23 22 22 22 22 20 19 18 17 16 14 14 13 12 12 12 12 12 12 12 12 12 12 12 12 12 12 12 12 12 12 12 12 12 12 12 12 12 12 12 12 13
27 26 24 23 22 22 22 22 22 23 23 22 20 18 17 16 15 14 13 13 12 11 11 11 11 11 11 11 11 11 11 11 11 11 11 11 11 11 11 11 11 11 11 11 11 12 12 12 12
26 26 23 22 21 21 21 21 21 23 23 21 20 18 17 16 15 14 13 12 12 11 11 11 10 10 10 10 11 11 11 10 11 10 10 10 10 10 10 10 10 11 11 11 11 11 11 11 11
26 26 26 25 24 22 22 21 21 21 21 20 19 18 16 16 15 14 13 12 11 11 10 10 10 10 10 10 10 10 10 10 10 10 10 10 10 10 10 10 10 10 10 10 10 10 10 10 11
27 27 26 24 22 22 22 21 20 19 20 20 19 18 16 15 14 13 12 11 11 10 10 10 9 9 9 9 9 9 9 9 9 9 9 9 9 9 9 9 9 9 9 9 10 10 10 10 10
26 26 25 25 24 22 21 21 21 20 20 19 19 17 16 15 14 12 12 11 11 10 10 9 9 9 9 9 9 9 9 9 9 8 8 8 8 8 9 9 9 9 9 9 9 9 9 9 9
26 26 25 23 23 23 22 21 22 21 20 20 18 17 16 14 13 12 11 11 10 10 9 9 8 8 8 8 8 8 8 8 8 8 8 8 8 8 8 8 8 8 8 8 9 9 9 9 9
Wind_Speed
10 13 11 8 8 10 15 12 5 5 6 7 7 9 12 13 9 9 8 18 24 21 19 19 18 18 17 17 16 16 15 15 14 13 13 13 12 12 12 12 11 11 11 11 10 10 10 10 10
10 12 9 8 9 12 12 10 6 7 10 8 6 9 12 14 13 13 14 20 22 20 18 18 18 17 17 16 16 16 15 15 14 13 12 12 11 11 11 10 10 10 10 10 9 9 9 9 9
10 14 8 8 14 15 9 3 6 8 9 6 6 8 9 11 11 12 17 21 20 18 18 19 18 17 17 17 16 16 15 14 13 12 12 11 11 10 9 9 9 9 9 9 9 9 9 9 8
7 8 7 10 16 16 9 2 5 7 7 6 6 9 10 9 11 15 19 20 19 18 19 19 18 18 17 16 16 15 15 14 14 12 11 11 10 9 9 8 8 8 8 8 8 8 8 8 7
10 8 12 14 17 14 6 4 4 4 6 7 7 11 10 10 18 18 19 19 18 19 18 18 18 17 16 16 15 15 15 14 14 13 12 11 10 9 8 8 8 7 7 7 7 7 7 7 6
8 8 13 15 16 11 5 4 4 6 6 8 10 13 9 8 14 17 18 17 19 19 18 18 18 17 16 15 14 14 14 14 13 13 12 11 10 9 8 8 7 7 7 7 7 7 7 6 6
12 12 15 17 14 10 4 4 5 6 5 6 8 11 9 8 10 15 16 16 18 18 17 16 16 16 15 14 14 13 13 13 13 12 12 11 10 10 9 8 8 7 7 7 7 7 7 6 6
13 12 17 17 12 7 6 5 3 2 2 3 5 9 11 9 8 13 15 16 17 16 14 13 15 15 14 14 13 13 12 11 11 11 11 10 10 9 9 9 9 8 8 8 8 8 8 7 7
15 13 15 15 9 5 6 7 5 4 6 8 10 13 16 12 10 11 13 13 13 13 11 11 11 11 12 13 14 13 11 10 10 10 10 9 9 10 10 10 11 9 9 9 9 9 9 9 9
12 13 14 7 1 3 6 5 7 7 8 10 14 16 18 13 12 12 11 12 12 11 10 9 10 8 8 9 11 9 9 10 9 8 9 9 8 7 8 10 12 10 9 9 10 11 10 10 10
14 15 7 2 3 2 3 3 4 7 8 8 11 15 15 11 9 11 11 10 10 9 7 8 8 6 6 6 7 5 5 7 6 5 6 6 5 5 5 7 9 9 10 9 10 11 10 10 9
12 8 4 1 1 1 3 5 7 11 10 11 11 11 12 11 9 10 10 8 9 9 7 6 7 6 5 5 4 4 3 4 4 5 5 4 2 2 2 3 7 7 8 7 7 8 9 9 10
10 6 4 2 3 4 5 6 7 11 13 13 11 10 9 10 10 11 10 9 9 9 7 6 5 6 5 4 2 3 3 3 3 4 3 1 1 1 1 1 2 4 5 5 6 7 7 7 7
8 7 7 7 6 6 6 8 7 8 12 12 10 9 10 11 11 10 9 10 9 8 7 7 6 7 6 4 3 2 3 2 3 4 2 1 0 0 1 1 2 3 4 4 5 5 4 4 4
7 8 9 9 10 9 10 9 11 12 13 12 11 10 11 11 11 10 9 10 8 8 7 7 7 7 5 4 3 3 3 4 4 3 2 2 2 2 2 1 1 2 4 4 4 4 3 2 3
10 11 12 12 12 11 11 10 13 11 12 12 11 11 11 11 12 10 11 10 9 8 7 7 7 7 5 4 3 3 4 4 3 3 3 3 2 3 2 1 2 3 3 2 2 3 2 2 2
13 14 13 12 14 12 10 9 12 10 11 10 10 11 11 10 11 10 10 10 8 8 8 8 7 6 4 3 2 3 3 4 4 4 4 3 2 2 2 2 2 3 2 2 3 2 2 2 2
13 14 13 12 12 12 10 11 13 11 11 10 10 10 11 10 10 9 9 9 8 7 7 7 6 7 4 3 2 2 3 3 4 4 5 5 4 4 3 1 2 2 2 2 2 2 1 1 1
10 10 11 10 10 9 10 14 14 13 11 11 10 10 10 11 11 9 9 9 9 8 7 7 7 6 5 4 3 2 3 3 3 4 6 6 6 6 4 3 2 1 1 2 2 2 2 2 2
7 7 7 9 10 8 8 12 14 14 13 12 12 11 10 10 10 9 9 9 10 9 8 8 7 7 6 4 3 2 2 2 2 3 4 5 6 6 5 4 3 2 2 2 2 2 2 2 2
8 6 4 4 7 9 10 12 14 13 11 11 11 11 10 10 9 9 9 9 9 9 9 8 8 8 7 5 3 3 2 2 2 3 3 5 6 6 6 6 4 3 2 2 2 1 2 2 2
7 6 6 8 9 8 10 9 12 14 12 11 10 10 11 11 10 9 9 9 9 8 8 9 8 8 7 6 6 5 4 3 3 3 3 3 5 6 7 6 6 4 3 3 3 2 2 2 3
6 7 9 10 11 10 9 8 8 13 12 11 10 10 11 11 11 9 9 8 8 8 8 8 8 8 7 7 6 5 5 4 3 3 4 3 4 5 6 6 5 4 4 4 3 3 2 2 2
6 8 9 9 9 11 6 7 6 9 13 13 11 10 11 11 11 10 9 8 8 8 8 8 7 7 7 6 6 5 5 4 4 4 4 3 3 4 6 6 5 4 4 4 4 3 2 2 2
8 8 5 6 6 7 6 6 4 10 12 15 16 14 12 12 11 10 9 8 8 8 8 7 7 7 6 6 6 6 5 4 5 4 4 4 4 4 5 5 4 4 4 4 4 3 3 2 2
9 10 7 6 6 5 5 3 2 7 10 15 16 15 14 12 11 9 9 8 7 7 7 7 7 6 6 6 6 6 5 4 4 5 5 5 4 4 4 5 5 5 5 5 4 3 3 2 2
9 9 9 10 9 5 3 4 5 7 9 13 15 14 14 12 11 10 9 8 7 7 6 7 6 6 6 6 6 6 6 6 5 5 5 4 4 4 5 5 5 5 5 4 3 3 3 3 3
9 8 6 6 6 6 4 4 5 9 10 11 13 13 13 13 12 11 9 8 8 7 7 7 6 6 6 6 6 6 6 6 5 5 5 5 5 5 5 5 5 5 5 5 4 3 3 3 3
7 8 7 7 7 6 5 1 5 9 9 11 12 13 13 13 12 11 9 9 8 7 7 6 6 6 6 6 6 6 6 6 6 5 5 5 5 5 5 5 5 5 5 5 5 5 4 4 4
8 8 7 6 7 6 5 0 5 8 10 12 13 13 13 13 12 11 10 9 8 7 7 6 5 5 5 5 5 5 5 6 6 6 6 5 5 5 5 6 6 6 6 6 6 6 6 5 5
Wind_Direction
260 258 253 258 244 241 246 244 186 129 108 79 62 74 73 73 86 106 123 110 114 120 127 127 129 134 137 139 139 137 135 133 131 130 127 123 118 115 112 111 110 111 113 114 115 116 116 114 112
260 251 246 245 245 241 241 229 173 119 97 95 92 96 87 81 94 111 113 111 115 122 131 128 129 133 138 140 140 140 139 138 137 136 133 130 126 123 120 119 117 116 117 118 119 122 123 122 122
259 256 246 240 242 250 252 190 135 114 108 123 119 97 87 90 95 110 116 116 118 124 124 123 128 130 135 139 141 142 142 142 142 141 140 136 134 131 129 128 126 123 123 124 125 126 127 130 132
240 225 235 243 243 241 242 180 129 136 134 148 130 98 86 98 108 117 119 119 123 127 124 127 128 129 132 136 140 142 143 145 145 145 145 144 142 140 138 137 135 133 133 134 133 134 135 139 144
237 236 230 245 249 245 210 131 139 176 163 148 124 101 82 84 108 120 121 126 131 127 126 130 127 128 131 135 139 142 144 146 147 148 148 149 150 150 149 147 145 145 147 146 146 145 147 153 158
223 229 236 241 242 238 205 149 190 218 171 146 133 113 100 108 118 126 127 133 130 126 126 128 128 129 132 135 137 139 143 146 148 149 151 154 156 158 160 158 155 156 158 158 158 157 159 165 174
239 243 247 248 243 221 191 173 205 220 180 157 133 117 116 124 128 129 131 128 122 123 128 137 137 134 133 133 135 136 139 145 149 151 154 160 165 169 172 170 171 172 173 175 173 171 174 181 192
243 261 262 258 247 215 168 188 195 170 153 103 103 122 127 128 137 130 125 119 118 122 131 139 143 144 146 143 140 139 141 146 150 155 161 167 172 181 185 184 184 186 189 191 189 188 190 197 206
242 255 259 253 238 186 165 179 153 114 97 81 85 108 125 135 141 129 122 117 115 118 126 136 139 146 154 151 148 150 152 154 158 165 171 176 190 193 194 203 187 192 198 199 197 198 200 204 214
227 243 250 267 260 164 166 173 157 148 118 98 99 109 125 143 144 131 123 120 119 122 125 130 131 141 146 142 143 161 168 163 178 179 179 196 213 207 203 193 183 193 200 206 205 207 209 215 217
226 243 259 329 16 47 109 114 111 122 102 99 113 123 132 140 131 118 114 115 120 114 107 117 122 125 128 123 147 162 164 154 175 182 187 211 223 214 202 172 180 197 205 214 209 209 220 223 227
235 240 257 209 96 98 95 87 82 84 100 104 109 115 123 120 108 98 101 112 106 100 94 96 115 115 111 115 142 143 142 143 168 171 179 209 227 241 198 173 183 199 212 219 215 219 228 234 238
233 221 213 184 154 150 126 107 99 95 97 103 103 104 99 93 94 89 85 86 88 85 81 75 78 89 82 85 88 102 98 132 139 130 160 163 161 273 292 244 207 211 220 227 230 229 231 234 240
208 201 190 189 177 168 160 141 126 123 118 120 116 111 103 93 86 80 83 82 76 76 70 71 70 74 71 73 70 67 82 97 95 89 96 73 358 321 295 257 239 244 232 232 235 238 233 240 243
206 192 192 192 187 183 179 165 141 137 132 127 121 113 98 89 89 88 84 81 78 73 66 66 78 74 72 65 51 63 58 67 65 71 79 67 5 348 317 298 278 284 275 257 252 251 237 256 242
205 203 201 192 192 187 200 169 137 142 138 134 128 117 101 92 84 82 77 71 60 66 65 55 63 68 69 65 41 46 47 51 53 46 48 54 9 348 305 289 285 289 281 265 249 248 248 248 236
207 209 200 185 192 187 203 156 145 158 149 143 136 124 111 101 92 83 78 75 65 58 62 59 51 59 59 71 68 54 57 49 46 43 34 22 1 349 317 301 319 311 302 289 267 243 224 228 230
211 210 193 190 191 195 184 154 156 167 161 151 140 131 121 108 97 89 82 79 71 63 60 59 54 47 45 58 76 63 54 54 48 45 30 20 2 353 348 316 353 335 321 303 295 281 238 212 206
245 215 190 182 180 206 187 163 163 167 165 154 149 140 129 116 108 100 91 81 69 61 61 55 51 45 42 39 38 48 50 42 44 47 37 30 18 3 2 344 338 320 307 305 298 272 251 225 188
252 231 191 167 174 203 198 179 169 174 177 164 156 149 140 126 112 100 90 81 71 58 51 53 45 43 42 38 33 57 66 57 50 41 46 29 21 10 6 7 353 348 335 324 319 326 271 246 206
244 241 226 194 196 203 209 199 177 175 174 162 154 148 142 133 119 108 93 81 73 62 51 48 42 36 36 29 37 51 61 61 44 42 48 35 25 22 15 9 1 352 350 336 318 313 269 249 233
237 245 232 216 218 221 216 224 195 178 177 165 155 149 140 129 117 108 96 85 76 71 63 56 48 41 36 34 40 38 41 40 24 25 41 43 36 26 21 13 6 355 349 345 323 325 290 253 244
234 232 236 238 237 246 225 236 202 172 180 175 163 153 139 128 120 111 99 91 84 77 69 60 54 48 41 40 43 39 36 26 20 22 30 32 41 31 24 17 7 355 350 346 333 328 308 285 269
242 239 245 254 253 248 255 251 208 187 187 170 154 145 137 129 121 114 108 97 85 77 71 63 58 52 45 45 48 45 37 28 25 21 16 16 36 33 23 17 9 2 355 347 338 327 320 295 279
248 252 251 253 257 260 276 263 200 177 165 157 156 155 146 135 129 126 116 101 89 79 73 66 62 57 47 42 41 36 31 37 33 17 19 20 30 30 17 14 2 357 355 354 347 345 342 332 305
233 248 251 257 250 247 237 253 133 130 135 143 146 146 141 138 134 126 113 103 93 83 74 70 64 58 50 46 42 35 26 30 33 32 27 27 23 22 13 11 4 359 360 1 359 357 348 345 330
244 247 261 274 275 268 204 158 142 125 128 133 140 144 143 141 134 125 116 109 101 92 80 74 68 60 54 47 44 44 37 33 29 29 27 26 20 17 17 11 3 2 1 358 1 6 1 2 6
249 263 272 276 278 282 248 183 165 156 158 146 146 148 146 141 132 125 120 113 105 98 89 76 70 60 53 49 40 43 36 33 30 31 33 30 23 17 6 6 2 8 9 7 7 14 15 18 18
252 256 271 282 289 292 291 19 137 163 163 158 153 151 149 140 134 131 126 119 112 105 98 90 79 68 58 52 46 39 32 32 36 36 30 27 23 17 11 5 13 21 18 12 16 19 23 27 26
267 259 263 269 282 284 291 62 121 148 168 158 152 146 139 132 130 129 128 122 117 109 99 89 79 69 64 61 57 49 42 39 38 34 28 24 22 19 20 17 18 23 23 17 23 22 29 30 31
Height
1502 1503 1504 1505 1501 1494 1487 1471 1464 1468 1469 1473 1476 1479 1483 1489 1497 1510 1510 1509 1510 1512 1516 1519 1522 1525 1528 1531 1533 1536 1539 1541 1543 1545 1546 1548 1550 1551 1553 1554 1556 1557 1558 1560 1561 1562 1563 1564 1564
1501 1504 1506 1503 1496 1496 1482 1465 1464 1467 1471 1476 1479 1482 1486 1492 1498 1504 1508 1510 1510 1513 1517 1520 1523 1526 1529 1532 1535 1537 1540 1542 1545 1546 1548 1550 1552 1553 1555 1556 1557 1559 1560 1561 1562 1563 1564 1564 1565
1501 1503 1504 1495 1492 1487 1476 1463 1464 1468 1473 1477 1480 1484 1489 1496 1500 1505 1508 1510 1511 1515 1517 1521 1524 1527 1530 1533 1536 1538 1541 1543 1546 1548 1550 1551 1553 1555 1556 1557 1559 1560 1561 1562 1563 1564 1564 1565 1566
1502 1503 1500 1492 1486 1473 1467 1465 1465 1469 1474 1478 1481 1487 1494 1498 1502 1506 1509 1511 1513 1516 1518 1521 1524 1527 1530 1533 1536 1539 1542 1544 1547 1549 1551 1553 1554 1556 1557 1558 1559 1561 1562 1563 1564 1564 1565 1566 1567
1502 1499 1495 1489 1478 1465 1461 1465 1469 1470 1474 1478 1483 1491 1498 1502 1503 1507 1510 1512 1514 1517 1519 1522 1525 1528 1531 1534 1537 1540 1542 1545 1547 1549 1551 1553 1555 1557 1558 1559 1560 1561 1562 1563 1564 1565 1566 1566 1567
1500 1493 1493 1488 1475 1463 1462 1466 1471 1472 1475 1480 1485 1492 1501 1505 1506 1508 1511 1513 1516 1517 1520 1523 1526 1529 1532 1535 1538 1540 1543 1545 1548 1550 1552 1554 1555 1557 1558 1559 1560 1561 1562 1563 1564 1565 1566 1566 1567
1497 1489 1486 1477 1469 1464 1464 1468 1472 1473 1476 1480 1485 1493 1503 1506 1508 1510 1512 1515 1517 1519 1521 1524 1526 1530 1533 1536 1538 1541 1543 1546 1548 1550 1552 1554 1555 1556 1558 1559 1560 1561 1562 1563 1564 1564 1565 1566 1567
1493 1488 1482 1473 1467 1465 1465 1470 1473 1477 1481 1483 1486 1494 1503 1506 1509 1511 1513 1515 1518 1520 1522 1525 1527 1530 1533 1536 1539 1541 1543 1546 1548 1550 1552 1553 1555 1556 1557 1559 1560 1561 1561 1562 1563 1564 1565 1566 1567
1492 1491 1484 1471 1465 1465 1467 1471 1477 1481 1484 1486 1490 1494 1499 1506 1510 1511 1514 1517 1519 1522 1524 1526 1528 1531 1534 1536 1539 1542 1543 1545 1547 1549 1551 1553 1554 1555 1557 1558 1559 1560 1561 1561 1562 1563 1564 1565 1566
1488 1487 1476 1464 1462 1465 1468 1472 1477 1482 1486 1491 1495 1499 1501 1506 1509 1511 1514 1516 1520 1523 1525 1528 1530 1532 1534 1537 1539 1542 1544 1545 1547 1548 1550 1552 1553 1555 1556 1557 1558 1559 1560 1560 1561 1562 1563 1563 1564
1482 1480 1471 1468 1468 1470 1472 1477 1479 1482 1490 1496 1498 1501 1504 1507 1510 1512 1514 1517 1521 1524 1526 1529 1531 1533 1534 1537 1538 1541 1543 1544 1546 1547 1549 1551 1553 1554 1555 1555 1556 1557 1558 1559 1560 1560 1561 1562 1563
1478 1475 1473 1472 1475 1477 1479 1482 1487 1488 1496 1499 1501 1504 1507 1509 1510 1511 1513 1519 1520 1524 1526 1528 1532 1532 1535 1536 1538 1540 1542 1543 1544 1546 1547 1549 1551 1552 1553 1553 1554 1555 1556 1557 1558 1559 1559 1560 1562
1476 1475 1477 1477 1479 1481 1483 1487 1490 1496 1498 1501 1503 1507 1509 1510 1512 1514 1516 1518 1521 1524 1527 1529 1530 1532 1534 1536 1538 1539 1540 1541 1542 1544 1546 1548 1550 1551 1552 1552 1553 1554 1554 1556 1556 1557 1558 1558 1559
1476 1476 1478 1480 1481 1483 1486 1489 1493 1499 1501 1503 1506 1509 1511 1512 1515 1518 1520 1521 1523 1525 1527 1528 1530 1532 1534 1536 1538 1539 1540 1540 1541 1543 1544 1546 1547 1549 1550 1550 1551 1552 1552 1553 1553 1554 1555 1556 1556
1475 1477 1479 1479 1481 1483 1486 1490 1494 1500 1503 1506 1508 1510 1513 1515 1517 1519 1521 1523 1525 1526 1527 1529 1531 1532 1533 1536 1538 1539 1540 1541 1541 1542 1543 1544 1545 1546 1547 1548 1548 1549 1549 1549 1549 1551 1552 1552 1553
1475 1479 1483 1478 1478 1481 1486 1495 1496 1500 1502 1506 1509 1512 1514 1517 1518 1521 1522 1524 1525 1526 1528 1530 1531 1532 1533 1535 1537 1538 1539 1540 1540 1541 1542 1542 1543 1544 1544 1544 1545 1545 1546 1546 1547 1548 1548 1549 1550
1477 1481 1481 1478 1475 1476 1483 1492 1496 1499 1501 1505 1509 1512 1515 1519 1521 1522 1523 1524 1526 1527 1528 1530 1531 1531 1533 1534 1536 1537 1538 1538 1539 1539 1539 1540 1541 1541 1541 1541 1542 1543 1543 1543 1543 1544 1544 1545 1546
1478 1474 1476 1479 1474 1475 1482 1490 1494 1497 1500 1504 1509 1513 1517 1521 1523 1525 1526 1527 1527 1528 1528 1529 1530 1531 1533 1534 1535 1536 1536 1537 1537 1537 1537 1538 1538 1539 1539 1539 1539 1540 1540 1540 1540 1541 1541 1542 1543
1465 1468 1474 1473 1471 1475 1481 1487 1491 1496 1499 1503 1508 1513 1517 1521 1524 1525 1526 1527 1527 1528 1528 1529 1530 1531 1532 1533 1534 1534 1535 1535 1536 1536 1536 1536 1536 1536 1536 1536 1536 1537 1537 1537 1537 1538 1538 1539 1540
1465 1468 1470 1470 1470 1475 1481 1484 1487 1493 1497 1501 1506 1511 1515 1519 1523 1525 1526 1527 1527 1528 1528 1529 1529 1530 1531 1532 1533 1534 1534 1535 1536 1535 1535 1535 1535 1534 1534 1534 1534 1534 1534 1535 1535 1535 1536 1536 1537
1470 1471 1473 1476 1474 1474 1481 1487 1487 1491 1495 1500 1505 1510 1514 1518 1521 1524 1526 1528 1528 1528 1528 1529 1529 1529 1530 1531 1532 1533 1533 1534 1534 1534 1534 1533 1533 1532 1532 1532 1532 1532 1532 1532 1532 1532 1533 1533 1534
1476 1468 1470 1473 1480 1483 1483 1497 1490 1490 1495 1500 1506 1511 1515 1519 1522 1525 1527 1528 1529 1529 1529 1529 1529 1529 1530 1531 1531 1532 1533 1533 1533 1533 1533 1532 1531 1531 1531 1530 1530 1529 1529 1529 1529 1529 1530 1531 1531
1471 1467 1468 1471 1476 1481 1482 1493 1493 1489 1497 1501 1507 1512 1516 1519 1523 1526 1528 1529 1530 1530 1529 1529 1529 1529 1530 1530 1531 1531 1532 1532 1532 1532 1532 1532 1531 1530 1529 1528 1528 1528 1527 1527 1527 1527 1527 1528 1528
1465 1468 1470 1472 1477 1493 1491 1495 1499 1492 1493 1498 1506 1512 1515 1519 1522 1525 1528 1529 1530 1530 1530 1530 1530 1530 1530 1530 1531 1531 1531 1531 1532 1532 1531 1531 1530 1529 1528 1528 1527 1526 1525 1525 1524 1524 1524 1524 1525
1468 1477 1493 1499 1503 1503 1494 1495 1495 1485 1486 1493 1503 1510 1515 1519 1522 1525 1528 1529 1530 1531 1530 1530 1530 1530 1530 1530 1530 1530 1531 1531 1531 1531 1531 1530 1529 1528 1528 1527 1526 1525 1524 1523 1522 1522 1522 1522 1522
1473 1476 1495 1509 1510 1506 1499 1501 1494 1486 1488 1494 1501 1508 1513 1518 1522 1525 1527 1529 1530 1531 1531 1531 1531 1531 1530 1530 1530 1531 1531 1531 1531 1531 1530 1530 1529 1528 1527 1526 1525 1524 1523 1522 1521 1520 1520 1520 1520
1471 1473 1471 1481 1486 1496 1498 1496 1495 1491 1494 1498 1503 1508 1513 1517 1521 1524 1527 1529 1530 1531 1531 1532 1531 1531 1531 1531 1531 1531 1531 1531 1531 1530 1530 1529 1529 1528 1527 1526 1525 1524 1522 1521 1520 1519 1518 1518 1517
1464 1467 1473 1484 1498 1502 1495 1495 1499 1498 1499 1499 1504 1508 1512 1517 1521 1524 1527 1529 1531 1532 1532 1533 1533 1532 1532 1532 1532 1532 1532 1531 1531 1530 1530 1529 1528 1528 1527 1526 1525 1523 1522 1521 1520 1518 1518 1517 1516
1468 1469 1472 1476 1478 1495 1503 1501 1488 1492 1494 1497 1502 1508 1511 1516 1520 1524 1527 1530 1531 1532 1533 1533 1534 1534 1534 1533 1533 1532 1532 1532 1531 1531 1530 1529 1528 1528 1527 1526 1525 1524 1522 1521 1520 1519 1518 1517 1516
1465 1468 1473 1485 1486 1484 1492 1501 1484 1488 1491 1495 1500 1506 1511 1516 1520 1524 1527 1530 1532 1533 1534 1534 1535 1535 1535 1534 1534 1533 1533 1532 1532 1531 1530 1529 1529 1528 1527 1526 1525 1524 1523 1522 1520 1519 1518 1517 1517